Orbital Elements
Epoch 2025 May 5.0 TT = JDT 2460800.5
T 2025 Feb. 2.62449 TT Pike
q 5.1907904 (2000.0) P Q
z -0.0006743 Peri. 265.53181 -0.75298466 -0.39308478
+/-0.0000009 Node 109.46484 -0.09800859 +0.86002283
e 1.0035002 Incl. 145.96359 -0.65069841 +0.32533841
From 749 observations 2023 Mar. 28-2025 July 23, mean residual 0".5.
|